Location: Valley Falls
(35.0169°N, 81.9753°W)
Time: 00:50:47
(UTC+00:00)

N. Korean satellite - Pass Details

Date: 05 December 2022
Orbit: 407 x 442 km, 97.3° (Epoch: 05 February)

Event Time Altitude Azimuth Distance (km) Brightness Sun altitude
Rises 22:36:15 0° 191° (SSW) 2,431 10.7 -4.6°
Reaches altitude 10° 22:38:29 10° 205° (SSW) 1,576 10.0 -5.0°
Maximum altitude 22:41:22 26° 263° (W) 939 9.1 -5.5°
Drops below altitude 10° 22:44:19 10° 322° (NW) 1,612 9.4 -6.1°
Sets 22:46:37 0° 335° (NNW) 2,500 10.2 -6.5°
